This is the latest recevied weather packets stored in our database for station/object KC3VCX. If no packets are shown the sender has not sent any weather packets the latest 10 day(s).
| Time | Temp. | Humidity | Pressure | Rain* | Wind** | Luminosity | Snow |
|---|---|---|---|---|---|---|---|
| 1777845850 | 13.89° C | 42% | 1015.9 hPa | 0 mm | - | 337 W/m² | - |
| 1777845547 | 13.33° C | 41% | 1015.8 hPa | 0 mm | - | 144 W/m² | - |
| 1777845244 | 13.33° C | 40% | 1016 hPa | 0 mm | - | 226 W/m² | - |
| 1777844941 | 13.89° C | 43% | 1015.8 hPa | 0 mm | - | 93 W/m² | - |
| 1777844639 | 14.44° C | 39% | 1015.8 hPa | 0 mm | - | 141 W/m² | - |
| 1777844336 | 14.44° C | 39% | 1015.8 hPa | 0 mm | - | 345 W/m² | - |
| 1777844034 | 15° C | 40% | 1015.6 hPa | 0 mm | - | 367 W/m² | - |
| 1777843730 | 15° C | 38% | 1015.4 hPa | 0 mm | - | 431 W/m² | - |
| 1777843428 | 13.89° C | 40% | 1015.8 hPa | 0 mm | - | 469 W/m² | - |
| 1777843125 | 13.89° C | 40% | 1015.6 hPa | 0 mm | - | 104 W/m² | - |
| 1777842822 | 15° C | 39% | 1015.8 hPa | 0 mm | - | 156 W/m² | - |
| 1777842517 | 14.44° C | 39% | 1015.8 hPa | 0 mm | - | 518 W/m² | - |
| 1777842215 | 13.89° C | 40% | 1015.9 hPa | 0 mm | - | 586 W/m² | - |
| 1777841909 | 13.89° C | 40% | 1015.8 hPa | 0 mm | - | 183 W/m² | - |
| 1777841606 | 13.89° C | 39% | 1016 hPa | 0 mm | - | 207 W/m² | - |
| 1777841303 | 14.44° C | 40% | 1016 hPa | 0 mm | - | 379 W/m² | - |
| 1777841000 | 13.89° C | 40% | 1016.2 hPa | 0 mm | - | 609 W/m² | - |
| 1777840697 | 13.89° C | 40% | 1016.1 hPa | 0 mm | - | 192 W/m² | - |
| 1777840395 | 13.89° C | 41% | 1016.1 hPa | 0 mm | - | 213 W/m² | - |
| 1777840091 | 14.44° C | 39% | 1016.2 hPa | 0 mm | - | 209 W/m² | - |
| 1777839790 | 13.89° C | 42% | 1016 hPa | 0 mm | - | 390 W/m² | - |
| 1777839488 | 13.89° C | 40% | 1016.1 hPa | 0 mm | - | 632 W/m² | - |
| 1777839184 | 13.33° C | 41% | 1016.4 hPa | 0 mm | - | 672 W/m² | - |
| 1777838882 | 13.33° C | 42% | 1016.3 hPa | 0 mm | - | 225 W/m² | - |
| 1777838577 | 13.33° C | 40% | 1016.1 hPa | 0 mm | - | 744 W/m² | - |
* Rain latest hour (hover to see other rain measurements)
** Current wind speed in m/s (hover to see current wind gust speed)